Location: Tierra del Sol
(32.6128°N, 116.3319°W)
Time: 15:28:52
(UTC-07:00)

Daily predictions for brighter satellites

Satellite Brightness Start Highest point End
(mag) Time Altitude Azimuth Time Altitude Azimuth Time Altitude Azimuth
FENGYUN 3A 4.2 19:18:08 10° SE 19:23:06 39° ENE 19:28:05 10° N
USA 215 4.3 19:20:42 10° ENE 19:25:36 22° ESE 19:30:28 10° S
Cosmos 1605 Rocket 4.2 19:21:38 10° SSE 19:27:36 49° E 19:33:40 10° NNE
Cosmos 1833 Rocket 4.3 19:24:39 10° NNE 19:28:00 16° ENE 19:31:19 10° E
Meteor 1-22 Rocket 4.4 19:23:06 10° S 19:28:54 85° E 19:34:56 10° N
Spot 2 Rocket 4.5 19:25:14 10° SE 19:29:30 28° ENE 19:33:47 10° NNE
Cosmos 1867 3.7 19:26:16 10° S 19:31:33 56° ESE 19:36:53 10° NE
Cosmos 2278 Rocket 2.5 19:26:02 10° SSW 19:31:41 74° WNW 19:37:23 10° NNE
SJ-6B 2.6 19:32:18 10° SSE 19:35:59 64° ENE 19:39:41 10° N
ATLAS 5 CENTAUR R/B 2.2 19:34:02 10° S 19:38:15 38° ESE 19:42:45 10° NE
Cosmos 2344 4.3 19:31:07 10° SW 19:38:41 59° NW 19:46:50 10° NNE
Yuri Rocket 3.8 19:35:23 10° W 19:39:43 41° S 19:43:27 11° ESE
NOAA 12 4.4 19:36:51 10° S 19:42:09 72° WSW 19:47:27 10° NNW
Timation 1 Rocket 4.3 19:38:12 10° SSW 19:44:11 78° ESE 19:50:12 10° NNE
H-2A R/B 3.4 19:40:42 10° SE 19:44:16 36° ENE 19:47:53 10° N
Cosmos 2123 Rocket 4.0 19:40:47 10° N 19:47:05 70° E 19:53:18 10° SSE
CZ-3C R/B 3.8 19:42:15 10° WSW 19:47:26 14° SW 19:50:16 10° SSW
Cosmos 2297 3.7 19:43:15 10° S 19:48:52 66° ESE 19:54:33 10° NNE
Resurs 1-3 4.1 19:47:37 10° SE 19:51:40 38° ENE 19:55:45 10° N
Cosmos 1125 Rocket 3.4 19:51:23 10° SSW 19:56:33 81° ESE 20:01:46 10° NNE
FengYun 1-2 T 4.2 19:51:47 10° SSE 19:57:19 77° ENE 20:02:56 10° N
HJ-1C 3.4 19:56:43 10° S 20:00:05 86° WSW 20:03:31 10° NNW
Cosmos 1408 Rocket 4.5 19:56:16 10° NNE 20:00:07 28° ENE 20:02:21 19° ESE
Delta 128 4.0 19:56:01 10° WSW 20:00:27 47° S 20:03:08 21° ESE
Cosmos 1758 3.2 19:58:47 10° S 20:02:44 82° E 20:06:44 10° N
SeaSat 1 2.4 19:58:35 10° SSE 20:03:28 70° ENE 20:08:23 10° NNW
Geosat 3.9 20:00:21 10° NNE 20:05:20 63° ESE 20:10:17 10° SSW
Cosmos 2082 Rocket 2.8 20:01:20 10° N 20:06:36 38° ENE 20:09:47 21° ESE
GPS 2-05 Rocket1 3.2 20:03:29 10° W 20:07:00 62° N 20:09:03 23° ENE
ALOS 2.6 20:02:22 10° S 20:07:00 68° W 20:11:40 10° NNW
Cosmos 1953 2.3 20:05:46 10° S 20:09:49 89° W 20:13:54 10° N
Cosmos 1271 Rocket 3.2 20:06:06 10° SSE 20:09:50 39° E 20:13:36 10° NNE
SL-27 R/B 4.4 20:08:32 10° NW 20:11:48 32° WSW 20:15:03 10° SSW
SAR-Lupe-4 4.1 20:15:34 35° E 20:16:12 38° ENE 20:19:34 10° N
Helios 1B rocket 2.4 20:13:16 10° NNE 20:17:18 55° E 20:21:20 10° S
Abrixas 3.2 20:15:36 10° NNW 20:18:14 33° NE 20:18:14 33° NE
Timation 2 Rocket 4.4 20:12:26 10° N 20:18:15 40° ENE 20:20:52 27° ESE
Cosmos 1459 Rocket 4.1 20:13:10 10° SSE 20:19:10 50° E 20:25:06 10° NNE
Cosmos 1939 Rocket 4.4 20:20:09 20° NE 20:20:09 20° NE 20:22:33 10° NNE
Tiangong 1 1.9 20:16:48 10° WNW 20:19:35 39° SW 20:20:18 32° S
Okean 3 Rocket 3.9 20:16:25 10° NNW 20:20:47 66° W 20:25:09 10° S
OAO 2 Rocket 3.7 20:17:38 10° SW 20:22:33 45° SSE 20:24:20 33° ESE
Meteor 1-29 3.1 20:19:36 10° NNE 20:22:59 48° E 20:23:14 47° ESE
Spot 1 4.4 20:21:21 27° SE 20:23:41 52° ENE 20:28:24 10° N
Cosmos 1076 Rocket 3.3 20:20:08 10° N 20:24:23 83° E 20:28:04 13° S
Cosmos 1447 Rocket 4.4 20:18:27 10° N 20:24:36 78° E 20:30:45 10° S
Cosmos 1674 2.7 20:22:09 10° N 20:25:52 53° E 20:26:29 46° ESE
Cosmos 2173 Rocket 4.0 20:20:18 10° SSE 20:26:16 56° E 20:32:21 10° NNE
COSMOS 2487 2.4 20:27:18 10° N 20:30:50 61° ENE 20:30:55 61° E
Helios 1A 2.9 20:29:49 41° SE 20:31:02 60° ENE 20:35:09 10° N
ISS -2.0 20:29:44 10° WSW 20:32:39 30° NW 20:34:47 15° NNE
USA 186 4.0 20:36:22 12° NNW 20:36:22 12° NNW 20:36:33 10° NNW
Lacrosse 5 rocket 3.1 20:31:49 10° N 20:33:58 17° NNE 20:33:58 17° NNE
SAR-Lupe-1 4.1 20:35:10 59° ENE 20:35:10 59° ENE 20:38:30 10° N
DELTA 2 R/B(2) 4.5 20:31:24 10° WSW 20:38:20 82° SSE 20:38:37 71° E
Delta 2 Rocket 4.4 20:35:36 10° W 20:39:58 36° SSW 20:41:01 32° S
CZ-2D R/B 4.0 20:38:55 16° S 20:41:51 52° W 20:45:39 10° NNW
Meteor 2-17 Rocket 4.5 20:36:41 13° SSE 20:42:02 53° E 20:47:58 10° NNE
GP-B 3.2 20:38:03 10° S 20:42:28 78° W 20:46:55 10° N
Cosmos 1818 3.7 20:37:48 10° NNW 20:43:14 74° WSW 20:45:51 31° SSE
Cosmos 1269 Rocket 4.0 20:40:54 10° NNW 20:46:12 81° WSW 20:48:47 31° S
Cosmos 1766 Rocket 3.6 20:41:44 10° N 20:46:13 78° W 20:48:16 32° S
Cosmos-2242 3.4 20:42:54 10° SSW 20:47:05 61° W 20:51:18 10° N
Delta 168 4.3 20:45:43 10° WSW 20:47:53 21° SSW 20:47:53 21° SSW
Resurs 01 Rocket 3.3 20:46:21 10° SSW 20:50:18 33° W 20:54:18 10° NNW
Cosmos 2016 Rocket 3.8 20:52:01 10° S 20:58:14 75° E 21:04:24 10° N
Cosmos 158 Rocket 4.1 20:53:56 10° NNW 20:59:06 74° WSW 21:00:40 46° S
Cosmos 1470 4.3 21:00:00 10° SSW 21:03:41 36° W 21:07:23 10° NNW
Cosmos 1725 Rocket 4.1 21:08:00 55° ENE 21:08:00 55° ENE 21:13:19 10° NNE
H-2A R/B (2) 3.0 21:04:01 10° WSW 21:07:33 43° S 21:08:05 42° S
USA 215 3.3 21:02:21 10° NE 21:08:53 76° NW 21:15:23 10° SW
Aurora 2 Rocket 3.9 21:02:38 10° WSW 21:08:34 38° SSW 21:08:34 38° SSW
Cosmos 1833 Rocket 3.0 21:06:47 10° NNW 21:12:19 61° WSW 21:13:40 47° SSW
Cosmos 1340 Rocket 4.3 21:15:56 10° NNW 21:18:37 35° NW 21:18:37 35° NW
SL-08 R/B 4.4 21:18:13 48° S 21:20:11 86° W 21:26:38 10° N
ATLAS 5 CENTAUR R/B 4.2 21:19:34 10° W 21:23:04 20° NW 21:26:46 10° N
Envisat 3.6 21:26:08 52° WSW 21:26:22 52° W 21:31:19 10° NNW
ERS-1 Rocket 4.3 21:43:18 34° NNW 21:43:18 34° NNW 21:46:10 10° NNW
Cosmos 2082 Rocket 4.1 21:46:00 10° NW 21:50:22 23° W 21:51:42 21° WSW
